Content
SEND FEEDBACK

Daily
Averages
Monthly
Summary
United States of America

CAMP QUEZON, GUAM


Home > North America > United States > Guam
Elevation: 82 meters     Latitude: 13 28N     Longitude: 144 48E

WEATHER
 
SELECT A DAY
Number of Records: 209,106;   Date Range: 1/1/95 - 8/12/14
 
SHARE

PRINT THIS DATA

[ ← Previous Day ]
WEATHER ALMANAC - 11 FEBRUARY, 2013
[ Next Day → ]
[ °F ]   °C
Weather ElementAverageHighLow
Temperature25.8 °C28.9 °C (12:54 pm)23.9 °C (1:54 am)
Dewpoint22.2 °C23.9 °C (6:54 pm)19.4 °C (10:54 am)
Humidity80.5 %94 % (11:54 pm)60 % (10:54 am)
Barometer1012.5 hPa1014.2 hPa (8:54 am)1011.2 hPa (2:54 pm)
Wind Speed22.9 km/h35.2 km/h (10:54 am)
Wind Gust46.3 km/h (3:14 pm)
Weather ElementAverage
Visibility15.9 km
Wind DirectionENE (67.4 °)

Weather ElementTotal
Precipitation0.76 mm
Cooling Degree Days8.1 (Base 18.3)
Growing Degree Days16.4 (Base 10)
Averaged from 27 records on 11 February, 2013
WEATHER CONDITIONS BREAKOUT
WIND DIRECTION BREAKOUT
WEATHER BY HOUR - 11 FEBRUARY, 2013
[ °F ]   °C
Local TimeTemperatureDewpointHumidityBarometerVisibilityWind DirectionWind SpeedGust SpeedPrecipitationEventsConditions
1:54 AM23.9 °C22.2 °C90 %1011.9 hPa16.1 kmENE (70°)16.7 km/h0.76 mmOvercast
2:54 AM24.4 °C22.2 °C87 %1011.9 hPa16.1 kmENE (70°)16.7 km/h0 mmPartly Cloudy
3:54 AM23.9 °C21.7 °C87 %1011.9 hPa16.1 kmEast (80°)13 km/hClear
4:54 AM23.9 °C20.6 °C82 %1011.9 hPa16.1 kmEast (80°)14.8 km/hPartly Cloudy
5:54 AM23.9 °C20.6 °C82 %1012.2 hPa16.1 kmEast (80°)16.7 km/hClear
6:54 AM23.9 °C21.1 °C84 %1012.9 hPa16.1 kmENE (70°)14.8 km/hClear
7:54 AM24.4 °C21.7 °C85 %1013.5 hPa16.1 kmNE (50°)13 km/hClear
8:54 AM26.1 °C22.2 °C79 %1014.2 hPa16.1 kmENE (60°)22.2 km/hPartly Cloudy
9:54 AM26.7 °C21.1 °C71 %1014.2 hPa16.1 kmENE (60°)22.2 km/hMostly Cloudy
10:54 AM27.8 °C19.4 °C60 %1013.9 hPa16.1 kmNE (50°)35.2 km/hOvercast
11:54 AM26.7 °C22.8 °C79 %1013.2 hPa16.1 kmENE (70°)27.8 km/h35.2 km/h0 mmMostly Cloudy
12:54 PM28.9 °C21.1 °C63 %1012.2 hPa16.1 kmENE (70°)33.3 km/h44.4 km/hMostly Cloudy
1:54 PM27.2 °C22.8 °C77 %1011.9 hPa16.1 kmENE (60°)25.9 km/h0 mmMostly Cloudy
2:54 PM27.8 °C22.8 °C74 %1011.2 hPa16.1 kmENE (60°)31.5 km/h44.4 km/h0 mmMostly Cloudy
3:14 PM28 °C22 °C70 %1011.9 hPa16.1 kmENE (60°)33.3 km/h46.3 km/hMostly Cloudy
3:47 PM27 °C23 °C79 %1011.9 hPa16.1 kmENE (60°)31.5 km/h44.4 km/hMostly Cloudy
3:54 PM26.7 °C22.2 °C76 %1011.2 hPa16.1 kmNE (50°)33.3 km/h46.3 km/hMostly Cloudy
4:27 PM26 °C22 °C78 %1012.5 hPa16.1 kmEast (90°)33.3 km/h46.3 km/hMostly Cloudy
4:40 PM25 °C22 °C83 %1012.5 hPa16.1 kmEast (80°)24.1 km/hMostly Cloudy
4:54 PM26.1 °C21.7 °C77 %1011.9 hPa16.1 kmEast (80°)18.5 km/hMostly Cloudy
5:54 PM26.7 °C22.8 °C79 %1011.9 hPa16.1 kmENE (70°)20.4 km/h35.2 km/hScattered Clouds
6:54 PM25.6 °C23.9 °C90 %1012.2 hPa14.5 kmENE (70°)20.4 km/h0 mmRainLight Rain
7:54 PM25.6 °C23.3 °C87 %1012.9 hPa16.1 kmENE (70°)20.4 km/h0 mmScattered Clouds
8:54 PM25.6 °C22.8 °C84 %1013.2 hPa16.1 kmENE (60°)20.4 km/hPartly Cloudy
9:54 PM25 °C23.3 °C90 %1013.9 hPa16.1 kmENE (60°)16.7 km/hScattered Clouds
10:54 PM25.6 °C23.3 °C87 %1013.9 hPa14.5 kmENE (70°)20.4 km/hRainLight Rain
11:54 PM24.4 °C23.3 °C94 %1013.9 hPa16.1 kmENE (70°)20.4 km/h0 mmPartly Cloudy
Hourly data recorded from PGUM, located 0 kilometers away from Camp Quezon, Guam







STORIES FROM OUR PARTNERS